CALSPHERE 1 1 00900U 64063C 09006.42687919 .00000297 00000-0 32503-3 0 6798 2 00900 090.1679 324.2924 0028597 359.8872 000.2298 13.70404378197311 CALSPHERE 2 1 00902U 64063E 09006.13588756 .00000075 00000-0 10000-3 0 9523 2 00902 090.1678 327.3565 0018866 004.3834 355.7478 13.52459915995462 LCS 1 1 01361U 65034C 09005.86426580 +.00000009 +00000-0 +10000-3 0 00996 2 01361 032.1388 184.4324 0004672 088.0533 272.0500 09.89275691579283 TEMPSAT 1 1 01512U 65065E 09006.50438377 .00000060 00000-0 10000-3 0 376 2 01512 089.8200 303.3376 0070940 132.9201 227.7921 13.33253601111089 CALSPHERE 4(A) 1 01520U 65065H 09006.43574545 .00000060 00000-0 10000-3 0 1680 2 01520 090.1904 080.2778 0071881 063.7834 297.0673 13.35303954112667 OPS 5712 (P/L 160) 1 02826U 67053A 09006.55545267 .00000375 00000-0 14319-3 0 6154 2 02826 069.9322 179.7133 0006427 348.2094 011.8880 14.38124047144055 OPS 5712 (P/L 153) 1 02874U 67053H 09007.13030096 -.00000006 00000-0 34695-4 0 45 2 02874 069.9728 076.6561 0008491 198.2289 161.8516 13.95915784118062 SURCAL 150B 1 02909U 67053J 09006.79977863 .00000399 00000-0 12804-3 0 7922 2 02909 069.9561 358.4063 0007542 227.6929 132.3579 14.46314577149637 RIGIDSPHERE 2 (LCS 4) 1 05398U 71067E 09006.33105496 .00000134 00000-0 43007-4 0 4555 2 05398 087.6223 293.9127 0065860 348.5136 011.4552 14.31117518961414 OPS 8180 (RADCAT) 1 06212U 72076A 09006.01260310 .00002122 00000-0 80656-4 0 6411 2 06212 098.5867 349.3165 0003177 172.2436 187.8868 15.28216626 98103